TimeCST,TemperatureF,Dew PointF,Humidity,Sea Level PressureIn,VisibilityMPH,Wind Direction,Wind SpeedMPH,Gust SpeedMPH,PrecipitationIn,Events,Conditions,WindDirDegrees,DateUTC
12:32 AM,37.9,37.0,97,30.09,1.8,Calm,Calm,-,N/A,,Clear,0,2012-11-07 06:32:00
12:40 AM,39.0,37.0,93,30.09,3.0,Calm,Calm,-,N/A,,Clear,0,2012-11-07 06:40:00
12:53 AM,39.9,37.9,93,30.09,7.0,Calm,Calm,-,N/A,,Clear,0,2012-11-07 06:53:00
1:07 AM,37.0,36.0,96,30.10,1.5,Calm,Calm,-,N/A,,Clear,0,2012-11-07 07:07:00
1:20 AM,37.9,37.0,97,30.10,3.0,Calm,Calm,-,N/A,,Clear,0,2012-11-07 07:20:00
1:27 AM,37.0,37.0,100,30.10,1.8,Calm,Calm,-,N/A,,Clear,0,2012-11-07 07:27:00
1:37 AM,37.0,37.0,100,30.10,0.5,Calm,Calm,-,N/A,Fog,Fog,0,2012-11-07 07:37:00
1:46 AM,35.1,35.1,100,30.10,2.0,Calm,Calm,-,N/A,,Clear,0,2012-11-07 07:46:00
1:53 AM,36.0,35.1,97,30.10,2.5,Calm,Calm,-,N/A,,Clear,0,2012-11-07 07:53:00
2:01 AM,36.0,36.0,100,30.10,1.2,Calm,Calm,-,N/A,,Clear,0,2012-11-07 08:01:00
2:13 AM,36.0,35.1,97,30.10,3.0,Calm,Calm,-,N/A,,Clear,0,2012-11-07 08:13:00
2:31 AM,34.0,34.0,100,30.10,2.5,East,3.5,-,N/A,,Clear,100,2012-11-07 08:31:00
2:40 AM,36.0,34.0,93,30.10,9.0,ESE,3.5,-,N/A,,Clear,110,2012-11-07 08:40:00
2:53 AM,36.0,35.1,97,30.10,9.0,Calm,Calm,-,N/A,,Clear,0,2012-11-07 08:53:00
3:04 AM,34.0,33.1,96,30.10,1.8,Calm,Calm,-,N/A,,Clear,0,2012-11-07 09:04:00
3:34 AM,35.1,34.0,96,30.10,0.8,Calm,Calm,-,N/A,,Clear,0,2012-11-07 09:34:00
3:53 AM,33.1,32.0,96,30.10,2.5,West,3.5,-,N/A,,Clear,270,2012-11-07 09:53:00
4:00 AM,33.1,32.0,96,30.10,5.0,Calm,Calm,-,N/A,,Clear,0,2012-11-07 10:00:00
4:37 AM,34.0,33.1,96,30.11,1.8,Calm,Calm,-,N/A,,Clear,0,2012-11-07 10:37:00
4:53 AM,32.0,30.9,96,30.11,1.2,Calm,Calm,-,N/A,,Clear,0,2012-11-07 10:53:00
5:02 AM,33.1,32.0,96,30.12,3.0,Calm,Calm,-,N/A,,Clear,0,2012-11-07 11:02:00
5:36 AM,32.0,32.0,100,30.12,1.8,Calm,Calm,-,N/A,,Clear,0,2012-11-07 11:36:00
5:48 AM,30.2,30.2,100,30.13,0.8,West,3.5,-,N/A,,Clear,260,2012-11-07 11:48:00
5:56 AM,30.9,30.0,96,30.13,4.0,West,3.5,-,N/A,,Clear,260,2012-11-07 11:56:00
6:53 AM,32.0,30.9,96,30.14,5.0,ENE,3.5,-,N/A,,Clear,70,2012-11-07 12:53:00
6:56 AM,32.0,30.9,96,30.14,1.2,ENE,3.5,-,N/A,,Partly Cloudy,70,2012-11-07 12:56:00
7:00 AM,32.0,30.9,96,30.14,0.2,Calm,Calm,-,N/A,Fog,Fog,0,2012-11-07 13:00:00
7:29 AM,34.0,34.0,100,30.15,1.2,Calm,Calm,-,N/A,,Scattered Clouds,0,2012-11-07 13:29:00
7:32 AM,34.0,34.0,100,30.15,3.0,Calm,Calm,-,N/A,,Scattered Clouds,0,2012-11-07 13:32:00
7:53 AM,37.0,35.1,93,30.16,9.0,Calm,Calm,-,N/A,,Clear,0,2012-11-07 13:53:00
8:53 AM,51.1,43.0,74,30.17,10.0,Calm,Calm,-,N/A,,Clear,0,2012-11-07 14:53:00
9:53 AM,62.1,34.0,35,30.16,10.0,NNW,9.2,-,N/A,,Clear,330,2012-11-07 15:53:00
10:53 AM,64.9,28.0,25,30.14,10.0,Variable,6.9,-,N/A,,Clear,0,2012-11-07 16:53:00
11:53 AM,68.0,28.0,22,30.12,10.0,NW,9.2,-,N/A,,Clear,320,2012-11-07 17:53:00
12:53 PM,69.1,27.0,21,30.08,10.0,Variable,4.6,-,N/A,,Clear,0,2012-11-07 18:53:00
1:53 PM,71.1,27.0,19,30.07,10.0,North,9.2,17.3,N/A,,Clear,350,2012-11-07 19:53:00
2:53 PM,71.1,26.1,19,30.06,10.0,North,8.1,-,N/A,,Clear,350,2012-11-07 20:53:00
3:53 PM,70.0,28.9,22,30.06,10.0,North,5.8,-,N/A,,Clear,360,2012-11-07 21:53:00
5:53 PM,59.0,30.0,33,30.09,10.0,Calm,Calm,-,N/A,,Clear,0,2012-11-07 23:53:00
6:53 PM,51.1,35.1,54,30.09,10.0,Calm,Calm,-,N/A,,Clear,0,2012-11-08 00:53:00
7:53 PM,44.1,36.0,73,30.10,10.0,ENE,3.5,-,N/A,,Clear,60,2012-11-08 01:53:00
8:53 PM,42.1,35.1,76,30.11,10.0,NE,3.5,-,N/A,,Clear,40,2012-11-08 02:53:00
9:53 PM,39.9,35.1,83,30.12,10.0,Calm,Calm,-,N/A,,Clear,0,2012-11-08 03:53:00
10:53 PM,39.9,35.1,83,30.13,9.0,East,3.5,-,N/A,,Clear,100,2012-11-08 04:53:00
11:53 PM,37.0,34.0,89,30.14,10.0,East,4.6,-,N/A,,Clear,80,2012-11-08 05:53:00